Home > Weather > Linden > Past weeks

Flag for Guyana Weather for the Past 2 Weeks in Linden, Guyana

Now
84 °F

Sprinkles. Scattered clouds.


Feels Like: 94 °F
Forecast: 74 / 85 °F
Wind: 16 mph from Northeast

Location: Georgetown/Cheddi Jagan International Airport

Current Time: Feb 9, 2016 at 2:33:42 PM

Latest Report: Feb 9, 2016 at 2:00 PM


Visibility: 6 mi

Pressure: 29.92 "Hg

Humidity: 79%

Dew point: 77 °F

Location of LindenLocation

Historic Weather in Linden — Graph

°F

Linden Temperature Yesterday

Maximum temperature yesterday: 86 °F (at 1:00 PM)
Minimum temperature yesterday: 75 °F (at 6:00 AM)
Average temperature yesterday: 80 °F

High & Low Weather Summary for the Past Weeks

 TemperatureHumidityPressure
High91 °F (Feb 2, 12:00 PM)100% (Jan 25, 10:00 PM)30.04 "Hg (Jan 25, 10:00 PM)
Low36 °F (Feb 4, 5:00 AM)44% (Feb 2, 12:00 PM)29.83 "Hg (Feb 2, 3:00 PM)
Average78 °F83%29.93 "Hg
* Reported Jan 25 1:00 PM — Feb 9 1:00 PM, Linden, Weather by CustomWeather, © 2016

Note: Actual official high and low records may vary slightly from our data, if they occured in-between our weather recording intervals... More about our weather records

Advertising

Linden Weather History for the Previous 24 Hours

 ConditionsComfort  
Time TempWeatherWind HumidityBarometerVisibility
1:00 PM
Tue, Feb 9
82 °FSprinkles. Partly sunny.18 mph79%29.95 "HgN/A
12:00 PM84 °FBroken clouds.14 mph79%29.98 "HgN/A
11:00 AM82 °FRain showers. Partly sunny.7 mph84%30.01 "Hg4 mi
10:00 AM82 °FSprinkles. Broken clouds.16 mph79%30.01 "HgN/A
9:00 AM82 °FScattered clouds.9 mph79%29.98 "HgN/A
8:00 AM81 °FPassing clouds.9 mph84%29.98 "HgN/A
7:00 AM77 °FPassing clouds.7 mph94%29.95 "HgN/A
6:00 AM75 °FPartly cloudy.7 mph100%29.92 "HgN/A
5:00 AM75 °FPartly cloudy.12 mph94%29.89 "HgN/A
11:00 PM
Mon, Feb 8
77 °FPassing clouds.7 mph89%29.92 "HgN/A
10:00 PM75 °FPassing clouds.5 mph94%29.92 "HgN/A
9:00 PM77 °FPartly cloudy.5 mph89%29.92 "HgN/A
8:00 PM77 °FRain showers. Partly cloudy.12 mph94%29.92 "Hg5 mi
7:00 PM81 °FPartly cloudy.7 mph84%29.89 "HgN/A
6:00 PM81 °FBroken clouds.12 mph79%29.89 "Hg6 mi
5:00 PM81 °FSprinkles. Partly sunny.12 mph84%29.89 "HgN/A
4:00 PM84 °FPartly sunny.16 mph70%29.89 "HgN/A
3:00 PM84 °FBroken clouds.16 mph66%29.89 "HgN/A
2:00 PM86 °FBroken clouds.16 mph70%29.92 "HgN/A
Weather by CustomWeather, © 2016

See weather overviewHow to use our weather pages